SL-14 R/B, 21656

Orbit data source: Space-Track

SL-14 R/B, 21656 is space debris in LEO originally from a launch on Thu, 15 Aug 1991 UTC launched from the Plesetsk Missile And Space Complex (PKMTR). Debris objects in space refer to the collection of defunct objects orbiting the Earth. Examples of debris include non-operational satellites, rocket bodies, and fragments generated from explosions, collisions, or faulty payload assembly.

Loading next visibility...
Identifier
21656, 1991-056B
Orbit
LEO
Country
Flag of CISCIS
Related business
Manufacturer
Yuzhnoe
Mission
Spacecraft
Bus & Motor
S5M, Unknown motor
Mass
1,600 kg wet, 1,600 kg dry
Launch date (UTC)
1991-08-15 (35 years ago)
Launch vehicle
Unknown
Launch site
Plesetsk Missile And Space Complex (PKMTR)
Object type
Payload
Rocket body
Debris
Shape & HBR
Cyl, 1.4 m
Radar Cross Section
7.351 m², Large (>1 m²)

Expand to show TLE details & history
Last TLE update: 11 hours ago

TLE from 11 hours ago
0 SL-14 R/B
1 21656U 91056B   26174.93489398  .00000016  00000-0  93278-5 0  9995
2 21656  82.5474 123.0626 0025818  54.4485  10.4241 13.20283049676302
Epoch: 2026-06-23T22:26Z
TLE epoch observation values (Epoch: 2026-06-23T22:26:14.839Z)
Latitude
63.99644°
Longitude
-110.12477°
Altitude
1,175.438 km
Speed
7.281 km/s
True Right ascension
09h 14m 08s
True Declination
63° 52' 05"
Sunlit
Object was in daylight at epoch
Visualization orbit readout
Latitude
Unknown
Longitude
Unknown
Altitude
Unknown
Speed
Unknown
Apparent Right ascension
Unknown
Apparent Declination
Unknown
Sunlit
N/A
Visualization observer readout
Local Sidereal Time
20:48:27
Azimuth
Unknown
Elevation
Unknown
Doppler factor
Unknown
Orbital elements
Apogee altitude
1,200.395 km
Perigee altitude
1,161.363 km
Semi-major axis
7,559.016 km
Eccentricity
0.00258
Inclination
82.5474°
RAAN
123.0626°
Arg. of periapsis
54.4485°
True anomaly
10.4778°
Mean anomaly
10.4241°
Eccentric anomaly
10.45093°
Mean motion
3.30252 °/min
Orbital period
109.01 mins
BSTAR
0.0000093278
Loading maneuver chart data...
Computing Atmospheric mass density...
Loading historical data...
Loading historical data...
Loading historical data...
Loading historical data...
Loading historical data...
Loading historical data...
Loading historical data...

Documentation

Showing up to 5 results
|